Voltar ao catálogo

STARLINK-37868

AtivoComunicaçõesSSO
NORAD 69334·PAYLOAD·🇺🇸 United States

Lançado Jun 3, 2026 de Vandenberg Space Force Base

Loading…

Próximas Passagens (próximas 24 horas)

TLE

AtualizadoSource: CelesTrak SupGP

Época: Sep 15, 2026, 04:19 UTC

1 69334C 26122F   26258.18034722 -.00054155  00000+0 -16817-2 0  2582
2 69334  97.2828 286.8302 0001441  95.3890 172.9875 15.33455840    14

Acompanhe STARLINK-37868 em tempo real com AllMySat

Download on the App Store